Regional Weather Roundup
Issued by NWS

Home | Current Version | Previous Version | Text Only | Print | Product List | Glossary On
Versions: 1 2 3 4 5 6 7 8 9 10 11 12 13 14 15 16 17 18 19 20 21 22 23 24 25 26 27 28 29 30 31 32 33 34 35 36 37 38 39 40 41 42 43 44 45 46 47 48 49 50
000
ASUS45 KTFX 271810
RWRMT
MONTANA REGIONAL WEATHER ROUNDUP
NATIONAL WEATHER SERVICE GREAT FALLS MT
1200 PM MDT WED MAY 27 2015

NOTE: "FAIR" INDICATES FEW OR NO CLOUDS BELOW 12000 FEET WITH NO
SIGNIFICANT WEATHER AND/OR OBSTRUCTIONS TO VISIBILITY.

MTZ001>007-043-271900-
WEST OF THE DIVIDE

CITY           SKY/WX    TMP DP  RH WIND       PRES   REMARKS
KALISPELL      CLOUDY    60  47  61 SW5       30.03S
MISSOULA       PTSUNNY   60  45  57 CALM      30.03F
BUTTE          PTSUNNY   50  43  77 SE7       30.06R
MULLAN PASS    LGT RAIN  46  44  93 NW5       30.08S
DEER LODGE       N/A     55  43  62 CALM      30.09S
EUREKA           N/A     63  46  55 CALM      30.03F
HAMILTON         N/A     61  43  51 CALM      30.03F
LIBBY            N/A     57  52  82 CALM      30.05F
$$

MTZ008-052>055-271900-
SOUTHWEST MONTANA

CITY           SKY/WX    TMP DP  RH WIND       PRES   REMARKS
BOZEMAN        MOSUNNY   60  46  59 CALM      30.03F
DILLON         PTSUNNY   57  43  59 CALM      30.02F
W YELLOWSTONE  PTSUNNY   54  37  54 SW9       30.09F
$$

MTZ009-010-012-014-046-048-049-054-271900-
EAST SLOPES AND CENTRAL MONTANA

CITY           SKY/WX    TMP DP  RH WIND       PRES   REMARKS
CUT BANK       PTSUNNY   62  46  55 N8        30.02S
GREAT FALLS    CLOUDY    54  50  86 W9        30.03S
MALMSTROM AFB  CLOUDY    57  49  75 W14       30.03S
HELENA         CLOUDY    55  47  74 CALM      30.04F
$$

MTZ011-013-016-021-045-047-050-051-271900-
NORTH CENTRAL MONTANA

CITY           SKY/WX    TMP DP  RH WIND       PRES   REMARKS
HAVRE          MOSUNNY   72  48  42 W10       29.94F
LEWISTOWN      CLOUDY    61  48  62 NW5       30.01F
N BAR RANCH    LGT RAIN  54  50  87 NW7       30.05R
CHINOOK          N/A     70  50  49 SW3       29.95S
FORT BENTON      N/A     64  50  59 S9        30.00S
$$

MTZ017>020-022>027-061-062-271900-
NORTHEAST MONTANA

CITY           SKY/WX    TMP DP  RH WIND       PRES   REMARKS
GLASGOW        CLOUDY    66  53  63 E14       29.93F
JORDAN           N/A     67  51  56 SW5       29.95S
SIDNEY         PTSUNNY   75  50  41 CALM      29.92S
WOLF POINT     LGT RAIN  59  56  89 N7        29.94F FOG
PLENTYWOOD       N/A     70  52  52 W8        29.94S
POPLAR           N/A     61  55  82 N3        29.94F
$$

MTZ028>42-056>058-271900-
SOUTHCENTRAL AND SOUTHEAST MONTANA

CITY           SKY/WX    TMP DP  RH WIND       PRES   REMARKS
BAKER          PTSUNNY   76  50  40 S16G26    29.94F
BILLINGS       PTSUNNY   65  50  58 CALM      29.99S THUNDER
LIVINGSTON     MOSUNNY   63  44  50 N5        30.01F
MILES CITY     LGT RAIN  57  55  93 NW9       29.98R FOG
BIG TIMBER       N/A     63  46  55 W12       30.02S
FORSYTH          N/A     61  55  82 NW3       29.97F
$$

REGIONAL REPORTS...DAKOTAS

CITY           SKY/WX    TMP DP  RH WIND       PRES   REMARKS
WILLISTON      CLOUDY    78  46  32 S6        29.91F
MINOT          FAIR      75  50  41 E7        29.96S
DICKINSON      PTSUNNY   76  49  38 S15G22    29.92F
BEACH          CLOUDY    66  52  59 SE3       29.93S
CROSBY         FAIR      72  50  46 E16G22    29.96S
WATFORD CITY   FAIR      77  46  33 SE13G23   29.90F
BISMARCK       MOSUNNY   79  48  33 S10       29.97S
GRAND FORKS    FAIR      69  49  48 N9        29.97R
FARGO          FAIR      77  55  46 VRB5      29.95S
BUFFALO SD       N/A     71  53  52 SE7       29.89F
RAPID CITY     PTSUNNY   71  55  56 S15G22    29.98F
$$

REGIONAL REPORTS...WYOMING/IDAHO/WASHINGTON

CITY           SKY/WX    TMP DP  RH WIND       PRES   REMARKS
GILLETTE       MOSUNNY   67  49  52 VRB6      29.98S
SHERIDAN       PTSUNNY   66  50  56 W5        29.99S
BUFFALO WY     PTSUNNY   64  50  60 N12       30.02S
CODY           MOSUNNY   63  46  55 N7        30.02S
IDAHO FALLS    PTSUNNY   58  51  78 CALM      30.06F
SALMON         CLOUDY    55  45  67 NW3       30.03F
BOISE          SUNNY     67  48  50 N3        30.01S
SPOKANE        PTSUNNY   66  50  56 VRB5      30.02F
$$

REGIONAL REPORTS...ALBERTA

CITY           SKY/WX    TMP DP  RH WIND       PRES   REMARKS
EDMONTON       PTSUNNY   68  48  49 SW3       29.95F
CALGARY        PTSUNNY   64  45  48 VRB3      30.01S
LETHBRIDGE     PTSUNNY   64  46  52 NW5       30.00F
MEDICINE HAT   CLOUDY    66  50  55 SW6       29.96R
$$

REGIONAL REPORTS...SASKATCHEWAN

CITY           SKY/WX    TMP DP  RH WIND       PRES   REMARKS
SWIFT CURRENT  SUNNY     70  46  43 E18G26    29.96S
REGINA         PTSUNNY   66  50  55 E12G18    29.99S
SASKATOON      MOSUNNY   61  39  44 E8        30.04F
$$



USA.gov is the U.S. government's official web portal to all federal, state and local government web resources and services.